TimeEST,TemperatureF,Dew PointF,Humidity,Sea Level PressureIn,VisibilityMPH,Wind Direction,Wind SpeedMPH,Gust SpeedMPH,PrecipitationIn,Events,Conditions,WindDirDegrees,DateUTC
12:15 AM,44.6,41.0,87,29.94,10.0,NNE,3.5,-,N/A,Rain,Light Rain,20,2012-12-29 05:15:00
12:35 AM,44.6,41.0,87,29.94,10.0,NNE,3.5,-,N/A,Rain,Light Rain,30,2012-12-29 05:35:00
12:55 AM,42.8,42.8,100,29.95,10.0,NW,3.5,-,N/A,Rain,Light Rain,320,2012-12-29 05:55:00
1:15 AM,42.8,42.8,100,29.96,4.0,North,5.8,-,N/A,Rain,Light Rain,350,2012-12-29 06:15:00
1:35 AM,42.8,42.8,100,29.92,5.0,ENE,5.8,-,N/A,Rain,Rain,60,2012-12-29 06:35:00
2:15 AM,42.8,-9999,N/A,29.85,7.0,NE,9.2,-,N/A,,Overcast,40,2012-12-29 07:15:00
2:35 AM,42.8,-9999,N/A,29.85,5.0,NE,8.1,-,N/A,Rain,Rain,50,2012-12-29 07:35:00
2:55 AM,42.8,-9999,N/A,29.88,1.5,NNE,8.1,-,N/A,,Unknown,20,2012-12-29 07:55:00
3:15 AM,42.8,-9999,N/A,29.85,4.0,NNE,10.4,-,N/A,Rain,Light Rain,20,2012-12-29 08:15:00
3:35 AM,42.8,-9999,N/A,29.88,1.5,NNW,11.5,-,N/A,Rain,Light Rain,330,2012-12-29 08:35:00
3:55 AM,42.8,-9999,N/A,29.85,4.0,North,9.2,-,N/A,Rain,Rain,350,2012-12-29 08:55:00
4:15 AM,42.8,-9999,N/A,29.83,5.0,North,11.5,-,N/A,Rain,Rain,10,2012-12-29 09:15:00
4:35 AM,42.8,-9999,N/A,29.84,2.5,North,5.8,-,N/A,Rain,Heavy Rain,10,2012-12-29 09:35:00
4:55 AM,42.8,-9999,N/A,29.80,5.0,ENE,10.4,-,N/A,Rain,Light Rain,70,2012-12-29 09:55:00
5:15 AM,42.8,-9999,N/A,29.78,10.0,ENE,9.2,-,N/A,Rain,Light Rain,70,2012-12-29 10:15:00
5:35 AM,42.8,-9999,N/A,29.76,7.0,East,6.9,-,N/A,Rain,Rain,100,2012-12-29 10:35:00
5:55 AM,42.8,-9999,N/A,29.76,10.0,East,4.6,-,N/A,,Overcast,100,2012-12-29 10:55:00
6:15 AM,42.8,-9999,N/A,29.79,10.0,Calm,Calm,-,N/A,,Overcast,0,2012-12-29 11:15:00
6:35 AM,42.8,-9999,N/A,29.79,10.0,NW,3.5,-,N/A,,Overcast,320,2012-12-29 11:35:00
6:55 AM,42.8,-9999,N/A,29.80,7.0,Calm,Calm,-,N/A,,Overcast,0,2012-12-29 11:55:00
7:15 AM,42.8,-9999,N/A,29.81,7.0,West,3.5,-,N/A,,Overcast,270,2012-12-29 12:15:00
7:35 AM,42.8,-9999,N/A,29.83,7.0,WNW,4.6,-,N/A,,Overcast,300,2012-12-29 12:35:00
7:55 AM,42.8,-9999,N/A,29.83,4.0,WNW,4.6,-,N/A,,Haze,300,2012-12-29 12:55:00
8:15 AM,42.8,-9999,N/A,29.84,3.0,West,8.1,-,N/A,,Overcast,280,2012-12-29 13:15:00
8:35 AM,42.8,-9999,N/A,29.85,4.0,West,8.1,-,N/A,,Haze,280,2012-12-29 13:35:00
8:55 AM,42.8,-9999,N/A,29.86,4.0,WNW,5.8,-,N/A,,Haze,290,2012-12-29 13:55:00
9:35 AM,42.8,-9999,N/A,29.87,5.0,WNW,8.1,-,N/A,,Haze,290,2012-12-29 14:35:00
9:55 AM,42.8,-9999,N/A,29.87,5.0,West,6.9,-,N/A,,Haze,270,2012-12-29 14:55:00
10:15 AM,42.8,-9999,N/A,29.88,10.0,West,6.9,-,N/A,,Overcast,260,2012-12-29 15:15:00
10:35 AM,44.6,-9999,N/A,29.88,10.0,WSW,9.2,-,N/A,,Overcast,250,2012-12-29 15:35:00
11:15 AM,46.4,46.4,100,29.88,10.0,West,15.0,20.7,N/A,,Overcast,270,2012-12-29 16:15:00
11:35 AM,46.4,46.4,100,29.88,10.0,West,18.4,21.9,N/A,,Mostly Cloudy,260,2012-12-29 16:35:00
11:55 AM,48.2,44.6,87,29.87,10.0,West,15.0,26.5,N/A,,Mostly Cloudy,270,2012-12-29 16:55:00
12:15 PM,48.2,44.6,87,29.87,10.0,West,16.1,28.8,N/A,,Overcast,270,2012-12-29 17:15:00
12:55 PM,50.0,44.6,82,29.85,10.0,West,15.0,20.7,N/A,,Overcast,260,2012-12-29 17:55:00
1:15 PM,51.8,42.8,71,29.85,10.0,WSW,18.4,25.3,N/A,,Overcast,250,2012-12-29 18:15:00
1:35 PM,51.8,42.8,71,29.84,10.0,West,18.4,26.5,N/A,,Mostly Cloudy,260,2012-12-29 18:35:00
1:55 PM,51.8,41.0,67,29.85,10.0,West,17.3,27.6,N/A,,Mostly Cloudy,270,2012-12-29 18:55:00
2:15 PM,51.8,41.0,67,29.85,10.0,West,19.6,28.8,N/A,,Scattered Clouds,260,2012-12-29 19:15:00
2:35 PM,51.8,41.0,67,29.86,10.0,West,19.6,26.5,N/A,,Mostly Cloudy,260,2012-12-29 19:35:00
2:55 PM,51.8,41.0,67,29.86,10.0,West,20.7,25.3,N/A,,Overcast,260,2012-12-29 19:55:00
3:15 PM,51.8,41.0,67,29.87,10.0,West,19.6,25.3,N/A,,Overcast,260,2012-12-29 20:15:00
3:35 PM,50.0,41.0,71,29.88,10.0,West,19.6,28.8,N/A,,Overcast,260,2012-12-29 20:35:00
3:55 PM,46.4,39.2,76,29.90,10.0,West,18.4,29.9,N/A,,Overcast,270,2012-12-29 20:55:00
4:15 PM,46.4,37.4,71,29.90,10.0,West,24.2,31.1,N/A,,Overcast,270,2012-12-29 21:15:00
4:35 PM,46.4,37.4,71,29.92,10.0,West,16.1,26.5,N/A,,Mostly Cloudy,260,2012-12-29 21:35:00
4:55 PM,46.4,35.6,66,29.92,10.0,West,13.8,23.0,N/A,,Mostly Cloudy,260,2012-12-29 21:55:00
5:15 PM,44.6,35.6,71,29.92,10.0,West,17.3,21.9,N/A,,Scattered Clouds,270,2012-12-29 22:15:00
5:35 PM,44.6,35.6,71,29.93,10.0,West,21.9,27.6,N/A,,Mostly Cloudy,270,2012-12-29 22:35:00
5:55 PM,44.6,35.6,71,29.94,10.0,West,17.3,25.3,N/A,,Mostly Cloudy,270,2012-12-29 22:55:00
6:15 PM,44.6,35.6,71,29.96,10.0,West,20.7,27.6,N/A,,Scattered Clouds,270,2012-12-29 23:15:00
6:35 PM,42.8,35.6,76,29.97,10.0,West,21.9,31.1,N/A,,Scattered Clouds,270,2012-12-29 23:35:00
6:55 PM,42.8,35.6,76,29.99,10.0,West,16.1,26.5,N/A,,Mostly Cloudy,260,2012-12-29 23:55:00
7:15 PM,42.8,33.8,70,30.00,10.0,West,17.3,26.5,N/A,,Scattered Clouds,260,2012-12-30 00:15:00
7:35 PM,41.0,33.8,76,30.00,10.0,West,17.3,23.0,N/A,,Clear,270,2012-12-30 00:35:00
7:55 PM,41.0,33.8,76,30.01,10.0,West,16.1,21.9,N/A,,Clear,280,2012-12-30 00:55:00
8:15 PM,41.0,32.0,70,30.02,10.0,West,15.0,25.3,N/A,,Clear,270,2012-12-30 01:15:00
8:35 PM,41.0,32.0,70,30.03,10.0,West,15.0,20.7,N/A,,Clear,270,2012-12-30 01:35:00
8:55 PM,41.0,32.0,70,30.04,10.0,West,12.7,21.9,N/A,,Clear,280,2012-12-30 01:55:00
9:15 PM,39.2,32.0,75,30.04,10.0,West,15.0,21.9,N/A,,Clear,280,2012-12-30 02:15:00
9:35 PM,39.2,32.0,75,30.05,10.0,West,11.5,17.3,N/A,,Clear,270,2012-12-30 02:35:00
9:55 PM,39.2,32.0,75,30.07,10.0,West,11.5,17.3,N/A,,Clear,270,2012-12-30 02:55:00
10:15 PM,37.4,32.0,81,30.08,10.0,West,10.4,-,N/A,,Clear,270,2012-12-30 03:15:00
10:35 PM,37.4,32.0,81,30.09,10.0,West,13.8,-,N/A,,Clear,270,2012-12-30 03:35:00
10:55 PM,37.4,32.0,81,30.10,10.0,West,9.2,-,N/A,,Clear,270,2012-12-30 03:55:00
11:15 PM,37.4,32.0,81,30.11,10.0,West,13.8,17.3,N/A,,Clear,270,2012-12-30 04:15:00
11:35 PM,37.4,32.0,81,30.12,10.0,West,11.5,-,N/A,,Clear,270,2012-12-30 04:35:00
11:55 PM,35.6,32.0,87,30.12,10.0,West,8.1,-,N/A,,Clear,270,2012-12-30 04:55:00